MST,Max TemperatureF,Mean TemperatureF,Min TemperatureF,Max Dew PointF,MeanDew PointF,Min DewpointF,Max Humidity, Mean Humidity, Min Humidity, Max Sea Level PressureIn, Mean Sea Level PressureIn, Min Sea Level PressureIn, Max VisibilityMiles, Mean VisibilityMiles, Min VisibilityMiles, Max Wind SpeedMPH, Mean Wind SpeedMPH, Max Gust SpeedMPH,PrecipitationIn, CloudCover, Events, WindDirDegrees
2012-12-1,48,41,33,35,32,29,89,71,53,29.85,29.80,29.70,10,10,10,20,6,25,T,7,Rain,187
2012-12-2,45,38,30,37,30,16,82,63,44,29.94,29.59,29.36,10,9,3,29,9,40,0.47,6,Rain-Snow,215
2012-12-3,41,33,24,22,20,18,81,61,41,30.27,30.15,29.98,10,10,10,17,4,22,0.00,4,,184
2012-12-4,36,31,26,32,28,20,89,79,69,30.23,30.14,30.05,10,9,2,14,2,17,0.01,7,Rain-Snow,4
2012-12-5,51,42,33,36,29,22,89,65,41,30.04,29.98,29.90,10,10,10,21,5,25,T,4,Rain,233
2012-12-6,41,33,24,24,18,13,81,58,34,30.05,30.00,29.92,10,10,10,17,4,23,0.00,1,,251
2012-12-7,37,31,25,19,16,13,68,52,35,30.05,29.95,29.76,10,10,10,14,6,18,0.00,4,,180
2012-12-8,33,25,16,20,13,5,84,62,39,30.21,29.99,29.75,10,6,1,23,5,29,0.05,8,Snow,331
2012-12-9,21,11,1,11,6,-4,87,69,51,30.49,30.38,30.23,10,10,9,8,1,10,0.00,3,,135
2012-12-10,40,26,12,23,14,9,80,57,34,30.25,30.17,30.08,10,10,9,16,4,26,T,6,,270
2012-12-11,42,34,25,23,20,18,75,59,43,30.08,29.82,29.58,10,10,10,10,3,,0.00,4,,181
2012-12-12,44,34,23,26,21,15,78,57,36,29.86,29.73,29.51,10,10,10,16,4,20,0.00,5,,337
2012-12-13,35,26,16,19,15,11,81,62,43,30.01,29.94,29.87,10,10,10,6,1,8,0.00,3,,332
2012-12-14,29,25,21,23,20,18,88,82,75,29.85,29.74,29.64,10,6,1,5,0,6,0.03,8,Snow,20
2012-12-15,32,27,22,23,20,13,88,72,55,29.86,29.79,29.71,10,10,9,10,1,14,0.00,7,,157
2012-12-16,33,26,18,17,13,8,77,57,36,29.86,29.76,29.65,10,10,5,13,3,16,T,5,Snow,172
2012-12-17,35,23,10,25,21,5,92,75,57,29.82,29.53,29.40,10,4,0,28,7,33,0.26,7,Fog-Snow,347
2012-12-18,17,5,-7,3,-2,-12,83,68,53,30.17,30.02,29.86,10,10,9,10,2,13,0.00,1,,204
2012-12-19,11,-1,-13,-2,-7,-16,87,73,58,30.52,30.40,30.15,10,10,6,7,0,7,0.00,1,,340
2012-12-20,23,13,2,9,2,-3,86,71,56,30.45,30.37,30.26,10,10,9,6,1,7,0.00,2,,210
2012-12-21,21,13,4,11,5,1,83,73,62,30.27,30.18,30.03,10,9,2,8,1,9,0.00,1,,207
2012-12-22,29,16,3,25,11,0,88,78,68,30.15,30.02,29.79,10,9,3,10,2,14,T,5,Snow,148
2012-12-23,26,17,7,20,12,4,88,75,62,30.13,29.95,29.71,10,8,1,10,2,13,0.01,4,Snow,307
2012-12-24,29,19,8,20,14,6,92,80,67,30.21,29.92,29.69,10,8,2,10,3,13,0.01,7,Snow,211
2012-12-25,21,11,0,11,6,-1,88,71,54,30.30,30.16,29.99,10,10,10,7,1,8,0.00,5,,330
2012-12-26,23,19,14,14,12,9,88,77,65,29.94,29.85,29.77,10,10,9,7,1,7,0.00,8,,291
2012-12-27,27,19,10,17,13,8,84,76,68,30.16,30.03,29.89,10,10,8,7,1,7,0.00,7,,235
2012-12-28,29,17,4,12,8,-1,86,66,46,30.33,30.23,30.15,10,10,9,7,2,8,0.00,2,,268
2012-12-29,16,9,1,9,4,-3,88,75,61,30.39,30.23,29.96,10,8,2,6,1,6,0.01,5,Snow,188
2012-12-30,20,8,-4,9,1,-6,87,74,61,30.41,30.20,29.97,10,8,2,5,0,6,0.02,4,Snow,315
2012-12-31,19,9,-2,6,2,-5,87,71,54,30.43,30.37,30.28,10,10,9,6,1,7,0.00,4,,180